Tracking 26325 objects as of 29-Nov-2022
HD Live streaming from Space Station
objects crossing your sky now

COSMOS 374

Track COSMOS 374 now!
10-day predictions
COSMOS 374 is classified as:


NORAD ID: 4594
Int'l Code: 1970-089A
Perigee: 599.3 km
Apogee: 1,977.7 km
Inclination: 63.0 °
Period: 111.2 minutes
Semi major axis: 7659 km
RCS: 0.5589 m2 (medium)
Launch date: October 23, 1970
Source: Commonwealth of Independent States (former USSR) (CIS)
Launch site: TYURATAM MISSILE AND SPACE COMPLEX (TTMTR)
aabbcc
Your satellite tracking list
Your tracking list is empty




NASA's NSSDC Master Catalog

Two Line Element Set (TLE):
1 04594U 70089A   22332.61842477  .00000113  00000-0  10850-3 0  9999
2 04594  62.9613  37.5820 0899760 303.0502  48.7157 12.95097396500882
Source of the keplerian elements: AFSPC